Buckhannon, WV

8:22 PM EDT on October 18, 2019 (GMT -0400)
Buckhannon

Weather History for KW22 - September, 2019

Change the Weather History Date:

Thursday, September 19, 2019

  Actual Average (KCKB) Record (KCKB)
Temperature  
Mean Temperature 64 °F -  
Max Temperature 78 °F 74 °F 92 °F (1925)
Min Temperature 51 °F 53 °F 34 °F (1929)
Growing Degree Days 14 (Base 50)    
Moisture  
Dew Point 48 °F    
Average Humidity 56    
Maximum Humidity 94    
Minimum Humidity 30    
Precipitation  
Precipitation 0.00 in - - ()
Sea Level Pressure  
Sea Level Pressure 30.23 in    
Wind  
Wind Speed 3 mph (SSE)    
Max Wind Speed 9 mph    
Max Gust Speed 13 mph    
Visibility 10 miles    
Events      
Averages and records for this station are not official NWS values.
T = Trace of Precipitation, MM = Missing Value Source: NWS Daily Summary

Daily Weather History Graph

Daily Weather History Graph

Search for Another Location

Airport or City:

Astronomy

Sep. 19, 2019 Rise Set
Actual Time 7:05 AM EDT 7:23 PM EDT
Civil Twilight 6:39 AM EDT 7:49 PM EDT
Nautical Twilight 6:07 AM EDT 8:21 PM EDT
Astronomical Twilight 5:35 AM EDT 8:53 PM EDT
Moon 10:34 PM EDT 12:05 PM EDT
Length of Visible Light 13h 10m
Length of Day
12h 17m
Waning Gibbous, 74% of the Moon is Illuminated
Sep 19
Waning Gibbous
Sep 21
Last Quarter
Sep 28
New
Oct 5
First Quarter
Oct 13
Full

Hourly Weather History & Observations

Time (EDT) Temp. Dew Point Humidity Pressure Visibility Wind Dir Wind Speed Gust Speed Precip Events Conditions
12:15 AM 62.6 °F 46.4 °F 55% 30.20 in 10.0 mi ESE 5.8 mph - N/A   Clear
12:35 AM 62.6 °F 46.4 °F 55% 30.20 in 10.0 mi ESE 5.8 mph - N/A   Clear
12:55 AM 62.6 °F 46.4 °F 55% 30.20 in 10.0 mi Calm Calm - N/A   Clear
1:15 AM 62.6 °F 46.4 °F 55% 30.20 in 10.0 mi Calm Calm - N/A   Clear
1:35 AM 62.6 °F 48.2 °F 59% 30.20 in 10.0 mi Calm Calm - N/A   Clear
1:55 AM 62.6 °F 48.2 °F 59% 30.20 in 10.0 mi Calm Calm - N/A   Clear
2:15 AM 60.8 °F 48.2 °F 63% 30.20 in 10.0 mi Calm Calm - N/A   Clear
2:35 AM 59.0 °F 48.2 °F 67% 30.21 in 10.0 mi Calm Calm - N/A   Clear
2:55 AM 57.2 °F 48.2 °F 72% 30.21 in 10.0 mi Calm Calm - N/A   Clear
3:15 AM 55.4 °F 48.2 °F 77% 30.21 in 10.0 mi Calm Calm - N/A   Clear
3:35 AM 57.2 °F 48.2 °F 72% 30.21 in 10.0 mi Calm Calm - N/A   Clear
3:55 AM 55.4 °F 48.2 °F 77% 30.20 in 10.0 mi Calm Calm - N/A   Clear
4:15 AM 55.4 °F 48.2 °F 77% 30.21 in 10.0 mi Calm Calm - N/A   Clear
4:35 AM 53.6 °F 48.2 °F 82% 30.22 in 10.0 mi Calm Calm - N/A   Clear
4:55 AM 53.6 °F 48.2 °F 82% 30.21 in 10.0 mi Calm Calm - N/A   Clear
5:15 AM 53.6 °F 48.2 °F 82% 30.21 in 10.0 mi Calm Calm - N/A   Clear
5:35 AM 53.6 °F 48.2 °F 82% 30.21 in 10.0 mi Calm Calm - N/A   Clear
5:55 AM 51.8 °F 48.2 °F 88% 30.21 in 10.0 mi East 3.5 mph - N/A   Clear
6:15 AM 53.6 °F 48.2 °F 82% 30.22 in 10.0 mi East 8.1 mph - N/A   Clear
6:35 AM 53.6 °F 48.2 °F 82% 30.22 in 10.0 mi East 6.9 mph - N/A   Clear
6:55 AM 51.8 °F 48.2 °F 88% 30.23 in 10.0 mi East 3.5 mph - N/A   Clear
7:15 AM 51.8 °F 48.2 °F 88% 30.23 in 10.0 mi NE 3.5 mph - N/A   Clear
7:35 AM 51.8 °F 50.0 °F 94% 30.24 in 10.0 mi Calm Calm - N/A   Clear
7:55 AM 53.6 °F 50.0 °F 88% 30.25 in 10.0 mi Calm Calm - N/A   Clear
8:15 AM 55.4 °F 50.0 °F 82% 30.26 in 10.0 mi Calm Calm - N/A   Clear
8:35 AM 57.2 °F 50.0 °F 77% 30.27 in 10.0 mi Calm Calm - N/A   Clear
8:55 AM 59.0 °F 51.8 °F 77% 30.28 in 10.0 mi SSW 3.5 mph - N/A   Clear
9:15 AM 62.6 °F 51.8 °F 68% 30.28 in 10.0 mi SE 5.8 mph - N/A   Clear
9:35 AM 64.4 °F 50.0 °F 59% 30.28 in 10.0 mi South 5.8 mph - N/A   Clear
9:55 AM 64.4 °F 50.0 °F 59% 30.28 in 10.0 mi SE 5.8 mph - N/A   Clear
10:15 AM 66.2 °F 50.0 °F 56% 30.28 in 10.0 mi SSE 8.1 mph - N/A   Clear
10:35 AM 68.0 °F 50.0 °F 52% 30.28 in 10.0 mi South 5.8 mph - N/A   Clear
10:55 AM 68.0 °F 50.0 °F 52% 30.28 in 10.0 mi SE 8.1 mph - N/A   Clear
11:15 AM 69.8 °F 48.2 °F 46% 30.27 in 10.0 mi SSW 5.8 mph 12.7 mph N/A   Clear
11:35 AM 71.6 °F 48.2 °F 43% 30.27 in 10.0 mi South 9.2 mph - N/A   Clear
11:55 AM 71.6 °F 48.2 °F 43% 30.27 in 10.0 mi SSW 8.1 mph - N/A   Clear
12:15 PM 71.6 °F 46.4 °F 41% 30.27 in 10.0 mi Calm Calm - N/A   Clear
12:35 PM 73.4 °F 48.2 °F 41% 30.26 in 10.0 mi South 6.9 mph - N/A   Clear
12:55 PM 73.4 °F 48.2 °F 41% 30.26 in 10.0 mi WSW 5.8 mph - N/A   Clear
1:15 PM 75.2 °F 46.4 °F 36% 30.25 in 10.0 mi Calm Calm - N/A   Clear
1:35 PM 73.4 °F 46.4 °F 38% 30.25 in 10.0 mi ESE 5.8 mph - N/A   Clear
1:55 PM 73.4 °F 46.4 °F 38% 30.25 in 10.0 mi Variable 3.5 mph - N/A   Clear
2:15 PM 77.0 °F 46.4 °F 34% 30.24 in 10.0 mi SSW 5.8 mph - N/A   Clear
2:35 PM 77.0 °F 44.6 °F 32% 30.24 in 10.0 mi Variable 5.8 mph 11.5 mph N/A   Clear
2:55 PM 75.2 °F 44.6 °F 34% 30.23 in - Calm Calm - N/A   Clear
3:15 PM 77.0 °F 44.6 °F 32% 30.22 in 10.0 mi Calm Calm - N/A   Clear
3:35 PM 77.0 °F 44.6 °F 32% 30.22 in 10.0 mi Variable 4.6 mph 11.5 mph N/A   Clear
3:55 PM 78.8 °F 44.6 °F 30% 30.21 in 10.0 mi SE 4.6 mph - N/A   Unknown
4:15 PM 78.8 °F 44.6 °F 30% 30.21 in 10.0 mi Calm Calm - N/A   Clear
4:35 PM 78.8 °F 46.4 °F 32% 30.20 in 10.0 mi Variable 5.8 mph - N/A   Clear
4:55 PM 78.8 °F 46.4 °F 32% 30.20 in 10.0 mi South 4.6 mph - N/A   Clear
5:15 PM 78.8 °F 46.4 °F 32% 30.20 in 10.0 mi South 5.8 mph - N/A   Clear
5:35 PM 78.8 °F 46.4 °F 32% 30.20 in 10.0 mi South 5.8 mph - N/A   Clear
5:55 PM 77.0 °F 46.4 °F 34% 30.20 in 10.0 mi SSW 6.9 mph - N/A   Clear
6:15 PM 77.0 °F 46.4 °F 34% 30.20 in 10.0 mi SSE 4.6 mph - N/A   Clear
6:35 PM 77.0 °F 46.4 °F 34% 30.21 in 10.0 mi South 5.8 mph - N/A   Clear
6:55 PM 75.2 °F 48.2 °F 38% 30.21 in 10.0 mi Calm Calm - N/A   Clear
7:15 PM 73.4 °F 46.4 °F 38% 30.21 in 10.0 mi SSE 6.9 mph - N/A   Clear
7:35 PM 71.6 °F 48.2 °F 43% 30.21 in 10.0 mi SE 6.9 mph - N/A   Clear
7:55 PM 69.8 °F 48.2 °F 46% 30.21 in 10.0 mi SSE 6.9 mph - N/A   Clear
8:15 PM 68.0 °F 48.2 °F 49% 30.22 in 10.0 mi SE 5.8 mph - N/A   Unknown
8:35 PM 68.0 °F 48.2 °F 49% 30.22 in 10.0 mi Calm Calm - N/A   Clear
8:55 PM 66.2 °F 48.2 °F 52% 30.22 in 10.0 mi SSE 4.6 mph - N/A   Clear
9:15 PM 66.2 °F 48.2 °F 52% 30.22 in 10.0 mi SSE 4.6 mph - N/A   Clear
9:35 PM 64.4 °F 48.2 °F 56% 30.22 in 10.0 mi South 4.6 mph - N/A   Clear
9:55 PM 64.4 °F 48.2 °F 56% 30.22 in 10.0 mi SSE 5.8 mph - N/A   Clear
10:15 PM 64.4 °F 48.2 °F 56% 30.23 in 10.0 mi SSE 4.6 mph - N/A   Clear
10:35 PM 62.6 °F 48.2 °F 59% 30.23 in 10.0 mi Calm Calm - N/A   Clear
10:55 PM 62.6 °F 48.2 °F 59% 30.23 in 10.0 mi South 4.6 mph - N/A   Clear
11:15 PM 62.6 °F 48.2 °F 59% 30.23 in 10.0 mi SSE 3.5 mph - N/A   Clear
11:35 PM 60.8 °F 48.2 °F 63% 30.23 in 10.0 mi SSE 3.5 mph - N/A   Clear
11:55 PM 60.8 °F 48.2 °F 63% 30.23 in 10.0 mi South 4.6 mph - N/A   Clear